Tracking 29594 objects as of 20-Sep-2024
HD Live streaming from Space Station
objects crossing your sky now

FENGYUN 1C DEB

Track FENGYUN 1C DEB now!
10-day predictions


NORAD ID: 31899
Int'l Code: 1999-025CLA
Perigee: 829.4 km
Apogee: 1,111.4 km
Inclination: 102.1 °
Period: 104.3 minutes
Semi major axis: 7341 km
RCS: 0.0071 m2 (small)
Launch date: May 10, 1999
Source: People's Republic of China (PRC)
Launch site: Taiyaun Space Center, China (TSC)

Note: This is SATELLITE DEBRIS
Your satellite tracking list
Your tracking list is empty




NASA's NSSDC Master Catalog

Two Line Element Set (TLE):
1 31899U 99025CLA 24263.67823498  .00002744  00000-0  23454-2 0  9996
2 31899 102.0735 195.3455 0192064 147.2294 214.0932 13.80190224613600
Source of the keplerian elements: AFSPC